Location: Unspecified
(30.6162°N, 0.0000°E)
Time: 10:32:28
(UTC+00:00)

COSMOS 1249 COOLANT - Visible Passes

Search period start: 04 April 2026 00:00
Search period end: 14 April 2026 00:00
Orbit: 874 x 970 km, 65.0° (Epoch: 25 March)

Date Brightness Start Highest point End Pass type
(mag) Time Alt. Az. Time Alt. Az. Time Alt. Az.
5 Apr ? 22:25:39 10° N 22:25:39 10° N 22:25:43 10° N visible
6 Apr ? 22:33:00 14° NNW 22:33:00 14° NNW 22:34:17 10° N visible
7 Apr ? 20:56:02 22° NNE 20:56:02 22° NNE 20:58:06 10° NNE visible
7 Apr ? 22:39:15 14° NW 22:39:15 14° NW 22:42:25 10° NNW visible
8 Apr ? 19:11:11 10° SE 19:14:59 17° ESE 19:18:50 10° ENE visible
8 Apr ? 20:54:52 10° SW 21:00:57 60° WNW 21:07:13 10° NNE visible
9 Apr ? 04:20:54 10° NE 04:21:56 10° NE 04:22:57 10° NE visible
9 Apr ? 19:18:49 10° SSE 19:23:55 28° ESE 19:29:07 10° NE visible
9 Apr ? 21:04:29 10° SW 21:10:15 39° WNW 21:16:09 10° NNE visible
10 Apr ? 04:27:50 10° N 04:31:34 16° NE 04:35:16 10° E visible
10 Apr ? 19:27:08 10° S 19:32:55 44° ESE 19:38:51 10° NE visible
10 Apr ? 21:14:31 10° WSW 21:19:39 26° NW 21:24:53 10° N visible
11 Apr ? 04:36:07 10° N 04:41:06 24° NE 04:46:00 10° ESE visible
11 Apr ? 19:35:52 10° SSW 19:42:00 70° ESE 19:48:17 10° NNE visible
11 Apr ? 21:25:03 10° W 21:29:08 18° NW 21:33:17 10° N visible
12 Apr ? 04:44:46 10° N 04:50:31 35° NE 04:56:08 10° ESE visible
12 Apr ? 19:44:58 10° SSW 19:51:09 76° WNW 19:57:30 10° NNE visible
12 Apr ? 21:36:37 10° WNW 21:38:45 12° NW 21:40:55 10° NNW visible
13 Apr ? 04:53:39 10° NNW 04:59:50 54° ENE 05:05:51 10° SE visible
13 Apr ? 19:54:25 10° SW 20:00:24 49° WNW 20:06:31 10° NNE visible
